CAPE
3 2 1 0 0 0 0 0 0 0 0 0 0 0 1 0 0 0 0 0 74 2605 2103 1697 1627 190 390 1923 540 331 358 16 1 5 0 173 228 225 141 94 96 46 38 603 1037
2 2 1 0 0 0 0 0 0 0 0 0 0 0 1 0 0 0 0 2274 2513 2765 420 861 27 83 127 578 578 326 159 33 0 0 1 219 196 176 146 99 70 17 58 772 929
2 1 0 0 0 0 0 0 0 0 0 0 0 0 1 0 0 0 1263 2458 2537 1321 0 20 10 2 55 205 188 300 196 20 25 4 16 177 145 126 52 36 10 1 11 721 740
1 0 0 0 0 0 0 0 0 0 0 0 0 0 0 0 0 0 2742 1990 2817 151 110 0 0 0 25 66 51 35 77 50 40 26 1 14 44 27 31 13 7 5 0 600 787
0 0 0 0 0 0 0 0 0 0 0 0 0 0 0 0 0 965 2946 2636 1747 526 566 12 5 37 12 29 61 53 18 31 29 38 82 50 20 6 5 11 29 11 7 349 725
0 0 1 0 1 0 1 1 0 0 0 0 0 1 0 0 0 405 1120 1056 737 481 527 192 173 88 74 101 39 71 100 49 62 131 191 43 9 0 0 0 22 11 17 150 551
0 1 0 1 2 0 1 1 0 0 0 0 0 0 0 0 0 0 0 9 248 367 350 67 1 81 19 103 25 59 19 6 63 294 258 77 66 14 0 12 12 56 45 6 205
1 1 1 1 2 1 1 0 0 0 0 0 0 0 0 0 0 0 0 0 60 162 258 0 5 1 175 84 66 54 9 67 35 279 188 168 216 58 113 253 51 254 229 85 85
1 1 1 1 2 1 0 0 0 0 0 0 0 0 0 0 0 0 0 0 0 5 66 164 0 40 147 22 3 79 58 93 217 236 156 104 163 91 115 266 275 414 446 606 347
0 0 0 0 0 0 0 0 0 0 0 0 0 0 0 0 0 0 0 0 0 0 3 34 3 4 0 8 1 14 26 88 55 214 367 271 216 144 177 292 406 635 622 639 559
0 0 0 0 0 0 0 0 0 0 0 0 0 0 0 0 0 0 0 0 0 0 0 3 4 12 0 20 9 0 0 13 90 166 198 43 88 168 288 266 335 552 562 719 256
0 0 0 0 0 0 0 0 0 0 0 0 0 0 0 0 0 0 0 0 0 0 0 0 0 19 16 46 27 22 24 108 74 181 281 150 22 32 358 389 319 507 739 773 32
0 0 0 0 0 0 0 0 0 0 0 0 0 0 0 0 0 0 0 0 0 0 0 0 5 5 167 135 3 0 71 79 84 86 154 225 102 37 174 434 434 591 689 770 614
0 0 0 0 0 0 0 0 0 0 0 0 0 0 0 0 0 0 0 0 0 0 0 0 0 155 199 45 7 0 42 25 65 20 202 19 10 5 31 227 198 513 556 291 735
0 0 0 0 0 0 0 0 0 0 0 0 0 0 0 0 0 0 0 0 0 0 0 0 0 111 61 21 35 34 6 14 83 155 57 49 34 7 1 11 67 208 279 158 513
0 0 0 0 0 0 0 0 0 0 0 0 0 0 0 0 0 0 0 0 0 0 0 0 0 0 12 239 59 40 9 59 91 74 15 0 1 51 4 18 155 195 244 77 129
0 0 0 0 0 0 0 0 0 0 0 0 0 0 0 0 0 0 0 0 0 0 0 0 0 0 42 141 28 49 0 6 0 0 11 0 0 0 15 0 150 223 270 130 0
0 0 0 0 0 0 0 0 0 0 0 0 0 0 0 0 0 0 0 0 0 0 0 0 0 0 23 73 81 1 4 21 7 0 6 2 0 0 0 0 72 179 205 130 81
0 0 0 0 0 0 0 0 0 0 0 0 0 0 0 0 0 0 0 0 0 0 0 0 0 0 128 56 128 38 1 0 0 0 0 8 1 0 0 0 0 54 164 151 205
0 0 0 0 0 0 0 0 0 0 0 0 0 0 0 0 0 0 0 0 0 0 0 0 0 0 130 0 10 1 5 1 0 0 0 0 0 0 6 2 0 29 99 98 246
0 0 0 0 0 0 0 0 0 0 0 0 0 0 0 0 0 0 0 0 0 0 0 0 0 0 0 3 30 0 12 0 0 0 0 3 13 0 0 0 10 19 55 118 325
0 0 0 0 0 0 0 0 0 0 0 0 0 0 0 0 0 0 0 0 0 0 0 0 0 0 0 89 13 0 0 0 1 13 22 23 12 22 0 0 4 10 65 175 338
0 0 0 0 0 0 0 0 0 0 0 0 0 0 0 0 0 0 0 0 0 0 0 0 0 0 0 11 1 19 0 2 0 0 9 35 23 19 0 0 0 15 50 167 352
0 0 0 0 0 0 0 0 0 0 0 0 0 0 0 0 0 0 0 0 0 0 271 0 0 0 0 0 1 24 16 1 2 1 0 35 31 3 0 0 0 0 48 268 312
0 0 0 0 0 0 0 0 0 0 0 0 0 0 0 0 0 0 0 0 0 0 0 0 0 0 0 0 7 152 113 59 5 0 0 0 0 0 0 0 0 1 24 56 32
0 0 0 0 0 0 0 0 0 0 0 0 0 0 0 0 0 0 0 0 0 0 0 0 0 0 0 0 21 108 135 32 21 6 0 0 0 4 0 0 0 0 0 7 112
0 0 0 0 0 0 0 0 0 0 0 0 0 0 0 0 0 0 0 0 0 0 0 0 0 0 0 0 3 25 27 3 0 1 0 0 0 0 0 0 0 0 1 146 630
CIN
0 0 0 0 0 0 0 0 0 0 0 0 0 0 0 0 0 0 0 0 -157 -362 -323 -249 -159 -182 -165 -58 -168 -193 -55 -36 -10 -37 -6 -93 -69 -70 -117 -171 -146 -221 -291 -85 -69
0 0 0 0 0 0 0 0 0 0 0 0 0 0 0 0 0 0 0 -392 -395 -357 -250 -148 -192 -251 -225 -171 -248 -77 -76 -35 0 0 -6 -70 -75 -102 -123 -159 -193 -298 -327 -78 -87
0 0 0 0 0 0 0 0 0 0 0 0 0 0 0 0 0 0 -447 -367 -361 -409 0 -436 -378 -402 -254 -220 -178 -35 -62 -20 -34 -17 -46 -59 -80 -113 -187 -180 -250 -64 -106 -68 -91
0 0 0 0 0 0 0 0 0 0 0 0 0 0 0 0 0 0 -410 -379 -402 -366 -231 0 0 -27 -229 -127 -125 -82 -102 -42 -39 -43 -4 -39 -92 -94 -123 -125 -191 -275 0 -87 -84
0 0 0 0 0 0 0 0 0 0 0 0 0 0 0 0 0 -321 -371 -391 -389 -224 -136 -61 -124 -288 -204 -188 -169 -63 -23 -33 -46 -32 -31 -58 -82 -61 -19 -73 -121 -197 -105 -95 -91
0 0 0 0 0 0 0 0 0 0 0 0 0 0 0 0 0 -609 -460 -409 -319 -252 -172 -278 -298 -301 -230 -146 -155 -123 -79 -37 -81 -39 -29 -50 -50 0 0 0 -23 -42 -69 -116 -111
0 0 0 0 0 0 0 0 0 0 0 0 0 0 0 0 0 0 0 -104 -314 -224 -178 -172 -107 -155 -283 -246 -222 -135 -35 -41 -44 -25 -16 -60 -69 -66 0 -49 -60 -93 -96 -113 -147
0 0 0 0 0 0 0 0 0 0 0 0 0 0 0 0 0 0 0 0 -290 -239 -164 0 -75 -129 -233 -265 -207 -200 -161 -63 -34 -31 -57 -43 -22 -92 -82 -42 -86 -89 -100 -125 -169
0 0 0 0 0 0 0 0 0 0 0 0 0 0 0 0 0 0 0 0 0 -143 -176 -111 0 -285 -293 -207 -128 -254 -119 -124 -28 -50 -73 -65 -58 -50 -101 -74 -73 -66 -93 -114 -148
0 0 0 0 0 0 0 0 0 0 0 0 0 0 0 0 0 0 0 0 0 0 -137 -67 -88 -65 -7 -214 -59 -149 -164 -130 -124 -150 -96 -67 -49 -86 -80 -71 -72 -91 -131 -175 -165
0 0 0 0 0 0 0 0 0 0 0 0 0 0 0 0 0 0 0 0 0 0 0 -118 -77 -77 0 -171 -215 -1 0 -132 -131 -208 -245 -106 -93 -61 -70 -60 -90 -98 -170 -197 -227
0 0 0 0 0 0 0 0 0 0 0 0 0 0 0 0 0 0 0 0 0 0 0 0 0 -146 -156 -165 -258 -240 -242 -199 -106 -154 -48 -114 -137 -48 -77 -78 -98 -162 -189 -221 -322
0 0 0 0 0 0 0 0 0 0 0 0 0 0 0 0 0 0 0 0 0 0 0 0 -61 -64 -146 -170 -195 -12 -198 -155 -157 -163 -93 -91 -62 -38 -49 -43 -89 -122 -157 -238 -292
0 0 0 0 0 0 0 0 0 0 0 0 0 0 0 0 0 0 0 0 0 0 0 0 -10 -83 -109 -216 -288 0 -160 -163 -193 -185 -89 -163 -27 -76 -68 -50 -97 -112 -141 -256 -272
0 0 0 0 0 0 0 0 0 0 0 0 0 0 0 0 0 0 0 0 0 0 0 0 0 -14 -41 -150 -215 -193 -221 -185 -202 -108 -118 -86 -37 -65 -86 -58 -115 -179 -141 -235 -291
0 0 0 0 0 0 0 0 0 0 0 0 0 0 0 0 0 0 0 0 0 0 0 0 0 0 -16 -108 -178 -284 -309 -200 -158 -109 -135 0 -119 -78 -70 -89 -105 -189 -147 -270 -261
0 0 0 0 0 0 0 0 0 0 0 0 0 0 0 0 0 0 0 0 0 0 0 0 0 0 -97 -205 -149 -225 0 -186 0 0 -87 0 0 0 -116 0 -101 -142 -170 -181 0
0 0 0 0 0 0 0 0 0 0 0 0 0 0 0 0 0 0 0 0 0 0 0 0 0 0 -55 -197 -265 -140 -186 -184 -92 0 -284 -214 0 0 -28 0 -93 -150 -157 -210 -236
0 0 0 0 0 0 0 0 0 0 0 0 0 0 0 0 0 0 0 0 0 0 0 0 0 0 -101 -175 -282 -191 -26 0 0 0 -42 -175 -393 0 0 0 0 -193 -129 -193 -174
0 0 0 0 0 0 0 0 0 0 0 0 0 0 0 0 0 0 0 0 0 0 0 0 0 0 -65 0 -134 -24 -283 -311 0 0 0 0 0 0 -353 -82 0 -208 -161 -182 -198
0 0 0 0 0 0 0 0 0 0 0 0 0 0 0 0 0 0 0 0 0 0 0 0 0 0 0 -31 -80 -14 -328 0 0 0 0 -169 -396 -1 0 0 -307 -219 -181 -177 -190
0 0 0 0 0 0 0 0 0 0 0 0 0 0 0 0 0 0 0 0 0 0 0 0 0 0 0 -106 -175 -26 0 -7 -139 -348 -447 -481 -479 -431 -103 0 -317 -248 -225 -157 -193
0 0 0 0 0 0 0 0 0 0 0 0 0 0 0 0 0 0 0 0 0 0 0 0 0 0 0 -109 -84 -91 0 -127 0 0 -253 -288 -403 -396 0 0 0 -264 -244 -173 -166
0 0 0 0 0 0 0 0 0 0 0 0 0 0 0 0 0 0 0 0 0 0 -387 0 0 0 0 0 -56 -97 -163 -103 -89 -163 0 -504 -365 -191 0 0 0 0 -214 -160 -171
0 0 0 0 0 0 0 0 0 0 0 0 0 0 0 0 0 0 0 0 0 0 0 0 0 0 0 0 -59 -107 -31 -66 -67 0 0 0 -91 0 0 0 0 -81 -257 -275 -358
0 0 0 0 0 0 0 0 0 0 0 0 0 0 0 0 0 0 0 0 0 0 0 0 0 0 0 0 -83 -90 -72 -38 -92 -205 -1 -206 0 -337 0 0 0 0 0 -218 -285
0 0 0 0 0 0 0 0 0 0 0 0 0 0 0 0 0 0 0 0 0 0 0 0 0 0 0 0 -139 -89 -143 -115 0 -80 0 0 0 0 0 0 0 0 -31 -293 -209
Wind_Speed
17 18 18 18 19 19 19 19 20 19 19 20 19 19 18 20 19 3 5 4 8 13 10 12 7 2 3 4 3 4 3 3 4 12 5 17 19 11 13 20 10 4 13 19 18
17 18 18 19 18 20 20 20 20 20 20 19 18 18 17 18 4 6 2 15 20 13 7 10 4 2 3 3 5 4 3 6 4 7 12 19 24 17 18 13 12 12 18 20 19
18 19 19 20 19 19 21 20 20 21 20 19 17 17 15 12 4 9 20 20 14 12 10 12 11 5 5 4 4 7 6 5 7 9 13 21 19 15 18 11 13 16 20 19 17
19 20 20 20 21 20 20 21 20 20 19 17 16 16 15 2 5 3 16 21 12 6 3 4 7 5 2 3 1 9 20 8 8 14 14 16 17 8 12 7 10 9 12 20 17
21 21 21 20 21 21 20 20 20 20 19 16 14 13 3 2 10 7 18 10 4 3 1 5 5 4 4 4 10 5 10 11 11 14 13 15 15 12 9 11 10 6 10 22 17
21 21 21 21 22 22 21 19 19 20 17 14 11 8 0 3 4 14 18 10 6 4 3 9 8 6 4 5 10 11 12 8 10 17 16 19 15 11 9 9 9 10 17 17 19
21 21 23 23 24 24 22 21 21 20 16 11 7 4 1 14 2 7 11 9 11 9 8 4 5 6 3 2 5 8 1 7 13 14 14 15 8 11 8 9 11 14 14 16 18
20 21 22 23 24 25 24 23 23 20 14 8 6 3 9 7 2 6 7 7 11 8 9 9 3 5 2 4 8 8 5 4 5 16 12 8 7 7 15 16 13 14 14 14 15
21 22 23 23 23 24 25 27 25 15 6 5 3 3 11 11 6 10 12 7 12 7 9 10 4 4 7 6 6 5 3 4 2 11 12 6 6 8 8 15 15 12 13 10 9
22 23 23 24 23 22 25 26 13 6 4 6 5 2 5 4 5 7 9 11 5 4 7 12 4 5 3 5 6 10 3 2 4 13 10 6 14 13 10 16 14 14 11 11 9
23 24 24 25 24 20 14 6 5 4 1 9 7 5 4 4 2 4 5 5 3 3 5 12 6 8 15 10 4 13 1 1 12 15 16 8 2 14 13 11 14 11 12 12 13
23 24 25 26 25 23 1 2 4 6 9 11 16 13 15 4 6 8 7 6 5 8 4 1 7 12 12 6 7 7 2 3 6 16 7 8 14 9 15 16 17 16 13 15 8
23 24 26 28 30 3 3 6 8 4 1 9 8 8 8 11 9 12 13 8 4 5 6 8 13 13 13 8 10 3 7 1 3 9 6 10 11 10 13 17 14 15 17 16 16
24 24 24 29 4 6 5 7 6 3 5 10 6 9 7 8 6 7 14 9 5 10 7 8 4 21 15 11 14 7 7 10 5 7 3 9 6 6 8 15 14 17 15 15 14
25 23 21 11 5 3 5 10 9 6 3 3 4 2 8 10 2 3 6 4 10 7 7 14 6 10 18 18 24 7 16 11 11 5 6 3 4 10 5 11 13 15 18 15 17
27 23 17 2 1 10 8 9 5 6 4 3 6 6 7 4 3 3 4 5 4 5 6 11 3 5 9 15 7 20 18 12 7 2 3 5 3 5 8 15 14 16 18 15 17
29 26 4 3 6 1 5 5 6 3 6 2 5 6 5 5 5 5 2 2 7 5 9 7 9 11 22 26 15 22 9 4 2 1 7 7 4 10 2 8 20 19 18 17 15
32 26 5 7 6 3 4 6 2 5 2 8 2 4 9 7 7 5 5 5 4 5 4 5 10 7 11 24 21 18 9 9 9 6 3 5 7 8 3 2 13 21 20 14 14
24 3 2 6 8 3 6 4 7 2 6 8 7 5 4 4 4 6 9 9 9 12 12 4 9 4 8 13 17 10 4 6 9 1 2 3 6 10 11 8 10 14 16 14 15
4 4 5 3 8 5 6 5 4 4 6 6 5 4 3 6 4 1 7 7 7 11 9 9 5 5 11 9 4 10 17 6 3 5 4 3 5 8 2 8 17 17 18 15 13
3 4 6 6 5 6 4 7 6 7 7 4 2 1 1 4 1 2 6 8 8 9 11 7 7 13 7 7 9 2 6 8 7 3 6 3 6 8 11 5 20 21 19 17 14
4 2 4 4 4 1 2 4 7 10 7 6 3 6 5 4 5 3 3 5 7 4 9 10 7 8 9 8 12 7 7 5 5 2 1 3 9 3 10 10 19 19 19 19 17
3 4 6 6 2 4 8 6 4 10 9 8 5 2 3 3 4 3 6 10 7 5 4 7 4 7 5 7 1 7 5 5 5 5 4 3 8 6 9 10 16 21 19 19 18
2 5 6 6 2 3 6 5 8 8 1 5 5 9 10 6 3 4 8 8 18 13 12 7 6 10 11 10 7 6 11 12 6 5 6 11 15 17 7 14 9 20 22 21 17
2 2 1 4 6 6 3 2 7 9 7 15 7 12 6 8 10 12 9 12 13 5 12 5 7 7 6 11 7 20 17 10 5 5 9 6 13 19 8 8 16 20 21 19 15
3 4 5 3 4 6 5 5 8 8 7 6 8 12 7 6 1 10 12 4 8 9 12 8 5 2 3 7 15 18 18 14 7 9 14 6 13 9 8 3 16 19 20 18 18
4 4 4 5 5 4 2 6 8 6 3 8 8 7 6 11 12 12 14 11 13 12 5 3 3 5 5 3 10 13 18 14 8 8 14 11 13 5 5 11 19 21 20 19 19
Wind_Direction
355 351 346 343 337 333 333 332 329 330 328 329 332 329 326 325 318 181 252 196 150 182 136 138 188 353 216 235 11 203 47 306 136 115 132 93 106 118 121 136 150 99 127 132 128
353 347 342 338 336 331 330 329 328 326 327 329 330 327 325 329 317 267 192 110 141 169 104 142 76 169 113 73 340 227 159 229 178 142 132 110 112 110 115 119 124 123 111 128 129
349 345 340 335 332 330 326 326 325 324 325 327 328 323 320 322 319 252 117 143 151 182 117 116 101 88 106 133 229 329 241 174 140 113 120 121 118 124 119 143 160 152 141 142 130
344 341 337 333 329 328 325 323 322 321 322 324 325 321 315 276 197 16 128 156 154 154 73 75 76 71 355 315 187 257 222 141 148 118 120 125 133 126 130 171 170 170 149 141 137
340 336 332 328 326 325 322 318 318 317 318 320 322 324 337 1 251 123 126 152 160 57 250 78 76 143 164 253 274 205 128 141 139 124 115 115 123 138 146 159 175 165 144 137 141
335 331 328 324 324 323 320 316 313 312 312 313 313 318 165 235 225 149 132 154 178 164 180 137 191 178 91 347 48 305 301 133 128 138 136 124 138 126 168 157 158 109 118 128 142
331 328 326 325 323 321 318 313 310 308 304 300 287 256 137 232 61 134 149 165 179 185 181 175 108 81 128 88 312 331 88 128 129 135 137 122 111 149 152 110 114 119 115 123 147
330 327 324 323 323 320 318 310 305 301 293 268 231 223 245 241 236 181 197 154 188 212 202 111 112 68 180 189 15 50 27 76 5 141 159 116 155 159 142 132 132 134 128 126 139
328 326 324 323 321 319 315 307 303 292 219 162 125 185 264 301 152 222 169 202 172 209 215 150 77 55 358 70 19 35 337 58 26 9 162 119 162 188 154 132 147 150 138 113 114
329 326 324 323 321 321 315 301 286 300 158 186 251 356 279 237 225 174 192 213 176 204 160 185 80 65 322 118 181 238 206 114 26 351 3 12 167 182 176 149 156 151 137 133 134
328 326 323 322 320 323 337 354 17 20 192 195 204 246 284 316 304 255 193 172 179 114 217 143 146 187 194 186 169 213 308 20 83 19 3 304 250 188 182 172 151 170 145 161 173
327 326 324 322 319 320 211 4 228 197 299 228 241 251 256 46 317 262 103 150 156 223 197 28 211 209 181 147 115 143 113 17 119 111 267 300 267 211 179 192 176 163 166 174 179
325 325 326 322 318 318 199 242 291 342 296 284 205 209 226 142 212 250 148 188 191 216 226 194 239 171 147 158 132 158 178 207 88 326 252 241 266 235 188 193 185 177 180 174 178
324 326 329 327 334 323 285 284 318 92 46 276 212 251 164 181 253 205 184 149 202 209 228 225 190 150 148 179 151 166 253 120 65 35 308 2 280 256 193 197 170 174 179 183 184
320 323 326 326 295 315 274 332 330 57 33 176 186 187 140 154 196 242 152 119 199 215 121 244 161 186 176 178 179 143 128 123 94 72 16 326 255 229 147 194 176 174 188 186 187
319 320 324 102 218 242 315 306 51 50 272 222 147 163 120 155 235 324 130 106 170 216 246 248 305 209 221 157 121 112 110 58 68 103 243 246 111 251 192 199 168 186 188 179 182
319 313 267 270 229 330 321 39 53 123 308 285 196 146 154 167 250 136 234 208 179 160 250 332 287 282 99 98 125 133 125 77 22 238 227 199 166 248 229 199 174 186 186 185 192
321 315 193 215 243 343 43 58 125 238 317 297 253 74 172 168 230 189 165 225 258 135 115 192 295 205 118 143 163 181 171 155 192 214 217 131 231 238 176 286 197 183 184 170 174
319 331 188 255 209 97 71 79 214 288 305 319 6 89 304 250 186 140 201 202 218 182 201 169 256 24 61 118 143 204 221 166 101 340 40 248 297 290 245 215 200 187 174 169 176
332 337 273 240 129 75 75 239 254 310 328 346 71 56 55 311 62 66 191 209 208 196 155 222 286 131 148 122 98 194 160 82 46 147 241 263 255 244 269 180 175 172 181 181 175
25 28 259 129 77 50 149 237 285 291 351 327 291 66 350 16 328 251 236 263 196 215 169 170 139 258 138 178 180 1 349 59 104 131 154 282 255 203 221 222 169 181 181 178 178
349 33 290 76 44 52 195 222 312 307 337 313 43 43 85 349 336 314 336 226 13 268 166 203 160 240 210 176 130 137 159 180 117 179 1 132 281 250 203 186 180 174 175 180 180
3 273 307 89 70 340 311 318 322 10 355 12 326 77 137 74 2 328 343 298 341 18 235 187 222 233 14 2 342 128 197 119 123 73 152 130 261 347 199 158 179 163 175 175 180
28 13 330 38 94 66 5 323 334 320 16 6 14 28 4 356 173 300 341 318 332 327 328 167 160 169 209 195 164 110 119 127 108 139 216 206 266 282 266 170 152 171 170 172 172
66 342 322 346 340 347 348 296 329 354 13 18 44 28 352 27 350 4 356 326 318 335 358 60 200 159 198 205 124 128 151 182 163 157 199 274 215 254 251 199 162 162 162 160 167
65 36 347 287 305 12 4 355 22 348 358 27 10 347 22 88 57 305 320 28 264 322 344 349 297 316 150 167 142 133 173 170 161 181 254 310 249 228 188 185 166 163 158 158 163
323 335 94 291 339 44 42 327 10 21 320 42 346 342 0 351 315 278 258 235 245 273 306 275 40 8 254 166 117 128 173 166 150 200 210 235 239 187 154 175 183 161 158 153 156